Regional Weather Roundup
Issued by NWS

Home | Current Version | Previous Version | Graphics & Text | Print | Product List | Glossary Off
Versions: 1 2 3 4 5 6 7 8 9 10 11 12 13 14 15 16 17 18 19 20 21 22 23 24 25 26 27 28 29 30 31 32 33 34 35 36 37 38 39 40 41 42 43 44 45 46 47 48 49 50

505
ASUS43 KMKX 302021
RWRWI

WISCONSIN REGIONAL WEATHER ROUNDUP
NATIONAL WEATHER SERVICE MILWAUKEE/SULLIVAN WI
300 PM CDT SAT APR 30 2016

NOTE: "FAIR" INDICATES FEW OR NO CLOUDS BELOW 12,000 FEET WITH NO
SIGNIFICANT WEATHER AND/OR OBSTRUCTIONS TO VISIBILITY.

WIZ001-002-006>008-014>016-023>028-302100-
NORTHWEST WISCONSIN

CITY           SKY/WX    TMP DP  RH WIND       PRES   REMARKS
SUPERIOR ARPT  CLOUDY    45  35  68 NE14G22   30.23F
ASHLAND        CLOUDY    47  31  53 NE22G32   30.25S
HAYWARD        MOSUNNY   53  32  44 NE21G30   30.15R
SIREN          PTSUNNY   56  31  39 NE15G26   30.12S
CUMBERLAND     PTSUNNY   55  32  41 E13G24    30.08F
RICE LAKE      CLOUDY    58  30  34 NE10G22   30.08F
CHETEK         PTSUNNY   57  34  41 E14G20    30.07F
LADYSMITH      CLOUDY    59  33  37 E14G21    30.09F
EAU CLAIRE     CLOUDY    58  32  37 NE20G26   30.04F
MENOMONIE      CLOUDY    58  33  38 E21       30.05F
NEW RICHMOND   CLOUDY    57  32  38 E17       30.06F
OSCEOLA        CLOUDY    58  33  39 NE17G26   30.09F
$$

WIZ003>005-009-010-017-018-302100-
NORTH CENTRAL WISCONSIN

CITY           SKY/WX    TMP DP  RH WIND       PRES   REMARKS
MANITOWISH WTR CLOUDY    53  32  43 NE9       30.13F
ARBOR VITAE    CLOUDY    57  33  40 NE9G20    30.12F
WOODRUFF       CLOUDY    57  33  40 NE9G20    30.12F
RHINELANDER    CLOUDY    56  31  38 NE13G21   30.11F
EAGLE RIVER    PTSUNNY   56  29  35 NE13G21   30.13F
LAND O LAKES   CLOUDY    53  32  45 NE7G16    30.15F
PHILLIPS       CLOUDY    55  33  42 NE13G22   30.09F
TOMAHAWK       CLOUDY    57  32  38 E9        30.09F
MEDFORD        CLOUDY    57  32  39 E16G23    30.07F
MERRILL        CLOUDY   N/A N/A N/A E15       30.09F
$$

WIZ029-030-035-036-043>047-302100-
CENTRAL WISCONSIN

CITY           SKY/WX    TMP DP  RH WIND       PRES   REMARKS
WAUSAU         CLOUDY    57  31  37 E14G24    30.06F
MOSINEE        SUNNY     54  32  43 E14       30.09F
MARSHFIELD     CLOUDY    54  33  45 E14       30.05F
STEVENS POINT  CLOUDY    51  31  45 E16G26    30.07F
WAUPACA        CLOUDY    54  35  49 NE12G20   30.06F
WAUTOMA        CLOUDY    52  35  52 E15       30.05
WISC RAPIDS    CLOUDY    53  31  42 E22G31    30.06F
CAMP DOUGLAS   CLOUDY    52  41  67 E15G25    30.01F
$$

WIZ011>013-019>022-031-037>040-048>050-302100-
NORTHEAST WISCONSIN

CITY           SKY/WX    TMP DP  RH WIND       PRES   REMARKS
ANTIGO         CLOUDY    54  32  43 E13       30.10F
SHAWANO        CLOUDY    55  31  40 E14       30.11F
OCONTO         CLOUDY    51  31  46 NE8       30.12F
STURGEON BAY   CLOUDY    48  34  57 NE10      30.14F
GREEN BAY      CLOUDY    51  36  56 NE15      30.10F
MANITOWOC      CLOUDY    48  38  68 NE8G17    30.09F
APPLETON       CLOUDY    52  34  50 NE18      30.07F
CLINTONVILLE   CLOUDY    52  32  46 E10       30.09F
OSHKOSH        CLOUDY    51  33  50 E13       30.07S
$$

WIZ032>034-041-042-053>061-302100-
SOUTHWEST WISCONSIN

CITY           SKY/WX    TMP DP  RH WIND       PRES   REMARKS
LA CROSSE      CLOUDY    53  36  52 E14G20    30.00F
SPARTA         CLOUDY    53  37  56 E12G22    30.01F
VIROQUA        CLOUDY    45  42  91 NE14      29.98S
BOSCOBEL       RAIN      48  44  86 E13G20    29.97S FOG
PRAIRIE DU CHI LGT RAIN  47  42  83 NE15G23   29.93F
PLATTEVILLE    CLOUDY    46  44  91 NE23G31   29.92R
$$

WIZ056-057-062-063-064-067-068-302100-
SOUTH CENTRAL WISCONSIN

CITY           SKY/WX    TMP DP  RH WIND       PRES   REMARKS
REEDSBURG      DRIZZLE   46  44  91 E7        29.99F
BARABOO/DELLS  LGT RAIN  46  42  85 E10       30.00F
LONE ROCK      LGT RAIN  47  42  83 NE17G30   29.97F
MINERAL POINT  LGT RAIN  45  45 100 NE24G33   29.92F
MADISON        LGT RAIN  46  40  79 E17G25    30.00F
MIDDLETON      CLOUDY    48  43  82 E18       29.99F
WATERTOWN      LGT RAIN  44  42  92 E10G16    30.01F
MONROE         RAIN      45  43  93 NE14G24   29.93S
JANESVILLE     LGT RAIN  46  45  93 NE18G25   29.95F
$$

WIZ051-052-058>065-066-070>072-302100-
SOUTHEAST WISCONSIN

CITY           SKY/WX    TMP DP  RH WIND       PRES   REMARKS
MILWAUKEE      LGT RAIN  44  39  82 NE15      30.02F
WAUKESHA       RAIN      43  37  81 E14G21    30.03F
MILWAUKEE/TIMM LGT RAIN  46  36  66 NE9       30.05F
RACINE         LGT RAIN  45  38  76 NE15G25   30.02F
BURLINGTON     LGT RAIN  42  40  89 E12       29.99F
KENOSHA        LGT RAIN  44  40  85 NE16      30.00F FOG
FOND DU LAC    CLOUDY    51  34  52 E13       30.06F
SHEBOYGAN      CLOUDY    48  35  60 NE13      30.08S
WEST BEND      LGT RAIN  45  37  76 E9        30.05F
JUNEAU         RAIN      45  38  77 NE12      30.05F
$$

LSZ147-162-302100-
LAKE SUPERIOR

STATION/POSITION TIME  TEMP    WIND        PRES    WAVE
                       AIR SEA DIR/SP/G            HT/PER
                 (UTC) (F)     (DEG/KT/KT) (MB)    (FT/S)
W MID LAKE BUOY  1950   39 37   80/ 12/ 16 1026.0S   2/ 4
DEVILS ISLAND    2000   39      90/ 22/ 24 1025.4R
SAXON HARBOR     1920   40      50/ 21     1023.4S
$$

LMZ867-665-643>646-302100-
LAKE MICHIGAN

STATION/POSITION TIME  TEMP    WIND        PRES    WAVE
                       AIR SEA DIR/SP/G            HT/PER
                 (UTC) (F)     (DEG/KT/KT) (MB)    (FT/S)
CHAMBERS ISLAND  1940   48      70/ 10/ 15 1020.7F
N MID LAKE BUOY  1950   42 39   40/  6/  8 1020.7F   1
NORTHPORT PIER   1900   44      70/ 12/ 13 1020.7F
ALGOMA LAKESHORE 1915           20/ 13/ 16   N/A
KEWAUNEE LAKESHO 2000   44      20/ 11/ 17 1018.7F
SHEBOYGAN LAKESH 2000   41      20/ 17/ 20 1019.2F
PORT WASHINGTON  1900   45      40/ 14/ 17 1019.0S
S MID LAKE BUOY  1950   43 40   70/ 12/ 14 1016.5F   1/ 3
KENOSHA   LAKESH 2000   43      50/ 16/ 19 1015.6F
$$

TC  - TEMPERATURE IN CELSIUS
VSB - VISIBILITY IN STATUTE MILES
WCI - WIND CHILL INDEX
HX  - HEAT INDEX





USA.gov is the U.S. government's official web portal to all federal, state and local government web resources and services.